AirNav   TITAN Aviation Fuels
 
 974 users online  

I83 Salem Municipal Airport
Salem, Indiana, USA

GOING TO SALEM?


FAA INFORMATION EFFECTIVE 09 SEPTEMBER 2021

Location

FAA Identifier: I83
Lat/Long: 38-36-14.6725N 086-09-08.1058W
38-36.244542N 086-09.135097W
38.6040757,-86.1522516
(estimated)
Elevation: 839.9 ft. / 256 m (estimated)
Variation: 04W (2015)
From city: 2 miles W of SALEM, IN
Time zone: UTC -4 (UTC -5 during Standard Time)
Zip code: 47167

Airport Operations

Airport use: Open to the public
Control tower: no
ARTCC: INDIANAPOLIS CENTER
FSS: TERRE HAUTE FLIGHT SERVICE STATION
NOTAMs facility: HUF (NOTAM-D service available)
Attendance: IREG
Wind indicator: lighted
Segmented circle: no
Lights: ACTVT PAPI RWY 08; MIRL RWY 08/26 - CTAF. MIRL RWY 08/26 PRESET LOW INTST TO INCR INTST - CTAF.

Airport Communications

CTAF/UNICOM: 123.0
WX AWOS-3 at BFR (20 nm NW): 119.125 (812-275-8306)
  • UNICOM NOT RGRLY MNTRD.

Nearby radio navigation aids

VOR radial/distance  VOR name  Freq  Var
OOMr148/38.9HOOSIER VORTAC110.2002W

 
NDB name  Hdg/Dist  Freq  Var  ID
GODMAN351/39.639603WGOI --. --- ..

Airport Services

Fuel available: 100LL
100LL:FUEL AVBL H24 WITH CREDIT CARD.
Parking: buoy and tiedowns
Airframe service: NONE
Powerplant service: NONE

Runway Information

Runway 8/26

Dimensions: 3000 x 75 ft. / 914 x 23 m
Surface: asphalt, in good condition
Weight bearing capacity: 
Single wheel: 30.0
Double wheel: 60.0
Runway edge lights: medium intensity
RUNWAY 8  RUNWAY 26
Latitude: 38-36.191155N38-36.297912N
Longitude: 086-09.442703W086-08.827420W
Elevation: 839.9 ft.816.4 ft.
Traffic pattern: leftleft
Markings: nonprecision, in good conditionnonprecision, in good condition
Visual slope indicator: 2-light PAPI on left (3.00 degrees glide path)
Runway end identifier lights: yesyes

Airport Ownership and Management from official FAA records

Ownership: Publicly-owned
Owner: SALEM BOARD OF AVN CMSNRS
334 N AIRPORT BLVD
SALEM, IN 47167
Phone (812) 883-5858
Manager: LOWELL DEPOY
334 N AIRPORT BLVD
SALEM, IN 47167
Phone (812) 896-4775

Airport Operational Statistics

Aircraft based on the field: 28
Single engine airplanes: 23
Multi engine airplanes: 1
Helicopters: 2
Ultralights: 2
    
Aircraft operations: avg 105/week *
73% local general aviation
27% transient general aviation
* for 12-month period ending 31 December 2018

Additional Remarks

FOR CD CTC LOUISVILLE APCH AT 502-375-7499

Instrument Procedures

There are no published instrument procedures at I83.

Some nearby airports with instrument procedures:

KBFR - Virgil I Grissom Municipal Airport (20 nm NW)
KSER - Freeman Municipal Airport (22 nm NE)
KFRH - French Lick Municipal Airport (23 nm W)
KJVY - Clark Regional Airport (24 nm SE)
KLOU - Bowman Field Airport (32 nm SE)
 
Loc | Ops | Rwys | IFR | FBO | Links
Com | Nav | Svcs | Stats | Notes
Area around I83 (Salem Municipal Airport)
 
Road maps at: MapQuest Bing Google
 
Aerial photo
WARNING: Photo may not be current or correct
Aerial photo of I83 (Salem Municipal Airport)
Photo by Phil Brooks
Photo taken 12-Sep-2019
looking west.

Do you have a better or more recent aerial photo of Salem Municipal Airport that you would like to share? If so, please send us your photo.

 
Sectional chart

 
Airport distance calculator
Flying to Salem Municipal Airport? Find the distance to fly.

From to I83

Sunrise and sunset
Times for 17-Sep-2021
 Local
(UTC-4)
 Zulu
(UTC)
Morning civil twilight07:0211:02
Sunrise07:2911:29
Sunset19:4923:49
Evening civil twilight20:1600:16

Current date and time
Zulu (UTC)  18-Sep-2021 00:53:09
Local (UTC-4)  17-Sep-2021 20:53:09
 
METAR
KJVY 
24nm SE 
171935Z AUTO 00000KT 10SM SCT041 SCT050 BKN055 30/20 A3009 RMK AO2 LTG DSNT NE
KSDF 
32nm SE 
171856Z 12009KT 10SM SCT041 BKN050 30/20 A3009 RMK AO2 SLP184 T03000200
KLOU 
33nm SE 
171853Z VRB04KT 10SM CLR 31/21 A3010 RMK AO2 SLP185 T03060206
KIMS 
34nm E 
171935Z AUTO 00000KT 10SM CLR 30/20 A3012 RMK AO2
KBMG 
39nm NW 
171853Z 14005KT 10SM BKN040 BKN055 BKN110 31/19 A3011 RMK AO2 SLP188 T03060194
KBAK 
41nm N 
171845Z 00000KT 10SM SCT046 29/18 A3012
KHNB 
43nm SW 
171856Z AUTO VRB04KT 10SM SCT041 29/21 A3010 RMK AO2 SLP187 T02890206
KFTK 
44nm S 
171856Z 14006KT 10SM SCT032 28/20 A3010 RMK SLP189 T02840196
KDCY 
46nm W 
171935Z AUTO 10005KT 10SM SCT070 SCT110 29/20 A3008 RMK AO2 LTG DSNT S T02850201
TAF
KSDF 
32nm SE 
171737Z 1718/1824 14005KT P6SM BKN035 FM180000 VRB03KT P6SM FEW040 FEW250 FM181000 VRB03KT 6SM BR FEW040 FEW180 FM181300 09004KT P6SM SCT080
KBMG 
39nm NW 
171721Z 1718/1818 VRB04KT P6SM SCT060 FM180000 00000KT P6SM FEW250 FM180800 00000KT 2SM BR BCFG FEW250 FM181400 09004KT P6SM SCT050
NOTAMs
Click for the latest NOTAMs
NOTAMs are issued by the DoD/FAA and will open in a separate window not controlled by AirNav.

 

 
 

FBO, Fuel Providers, and Aircraft Ground Support

  
 Business Name 
 
 Contact 
 
 Services / Description 
 
Fuel Prices
 
Comments
  
Salem Municipal Airport 812-883-4265
812-883-4264
[web site]
[email]
Aviation fuel, Hangar leasing / sales, Public telephone, Internet access, Restrooms

More info about Salem Municipal Airport
independent
100LL Jet A
RA --- $4.10 
SS $4.98 --- 
 Updated 17-Sep-2021
 
   write
RA=Restricted
SS=Self service
Update Fuel Prices
 

Would you like to see your business listed on this page?

 If your business provides an interesting product or service to pilots, flight crews, aircraft, or users of the Salem Municipal Airport, you should consider listing it here.  To start the listing process, click on the button below
 
Add a business
 

Other Pages about Salem Municipal Airport

cityofsalemin.com/...
 
Update a link
 
Copyright © AirNav, LLC. All rights reserved. Privacy Policy  Contact